Regional Weather Roundup
Issued by NWS

Home | Current Version | Previous Version | Text Only | Print | Product List | Glossary On
Versions: 1 2 3 4 5 6 7 8 9 10 11 12 13 14 15 16 17 18 19 20 21 22 23 24 25 26 27 28 29 30 31 32 33 34 35 36 37 38 39 40 41 42 43 44 45 46 47 48 49 50
000
ASUS44 KFWD 211715
RWRTX
NORTH TEXAS HOURLY WEATHER ROUNDUP
NATIONAL WEATHER SERVICE FORT WORTH TX
1100 AM CST SUN DEC 21 2014

NOTE: "FAIR" INDICATES FEW OR NO CLOUDS BELOW 12,000 FEET WITH NO
SIGNIFICANT WEATHER AND/OR OBSTRUCTIONS TO VISIBILITY.

TXZ118-119-211800-
DALLAS/FORT WORTH METROPLEX

CITY           SKY/WX    TMP DP  RH WIND       PRES   REMARKS
DFW AIRPORT    DRIZZLE   49  44  83 S10       30.05F
DALLAS LOVE    CLOUDY    49  44  83 S14       30.07F
FTW MEACHAM    CLOUDY    50  45  83 S15       30.02F HAZE
DAL-EXECUTIVE  CLOUDY    50  44  80 SE8       30.06F
FTW-ALLIANCE   CLOUDY    48  45  89 SE13      30.03F FOG
FTW-SPINKS     CLOUDY    48  46  93 SE9       30.07F FOG
ARLINGTON      CLOUDY    50  43  77 SE10      30.06F
GRAND PRAIRIE  PTSUNNY   48  45  87 S12       30.07F
MESQUITE       CLOUDY    46  45  93 SE7       30.10F
LANCASTER      CLOUDY    48  43  84 SE8       30.09F
$$

TXZ091>094-102>105-117-120-121-131>134-211800-
NORTH CENTRAL TEXAS

CITY           SKY/WX    TMP DP  RH WIND       PRES   REMARKS
SHRMAN/DENISON CLOUDY    49  46  88 S14       30.06F
GAINESVILLE    CLOUDY    47  43  84 SE14      30.05F
BOWIE          CLOUDY    47  45  91 SE9       30.00F FOG
BRIDGEPORT     CLOUDY    49  46  87 S13G21    30.03F
DECATUR        CLOUDY    46  46  97 S12G18    30.02F FOG
DENTON         CLOUDY    49  44  83 SE15      30.04F
MCKINNEY       CLOUDY    48  44  86 S12       30.06F
GREENVILLE     CLOUDY    46  43  87 SE10      30.09F
ROCKWALL       CLOUDY    48  45  87 S8        30.07F
TERRELL        CLOUDY    49  45  86 S8        30.10F
WAXAHACHIE     CLOUDY    48  47  97 SE7       30.09F
CLEBURNE       PTSUNNY   48  48 100 SE10      30.06F
GRANBURY       CLOUDY    51  46  82 SE10      30.04F
$$

TXZ083>090-098>101-113>116-127>130-139>142-154-155-211800-
WESTERN NORTH TEXAS

CITY           SKY/WX    TMP DP  RH WIND       PRES   REMARKS
WICHITA FALLS  CLOUDY    48  43  82 S18       29.96F
WF-KICKAPOO    CLOUDY    48  44  84 S13       29.98F
VERNON         CLOUDY    51  42  72 S17       29.91F
ABILENE        PTSUNNY   51  44  77 S18       29.96F
BRECKENRIDGE   CLOUDY    51  44  78 S9G17     29.98F
GRAHAM         CLOUDY    48  46  90 SE9       29.97F
MINERAL WELLS  CLOUDY    49  45  86 S10       30.00F FOG
STEPHENVILLE   CLOUDY    49  43  79 S12       30.05F
COMANCHE       CLOUDY    50  46  86 S16       30.03F
BROWNWOOD      CLOUDY    50  45  81 S14       30.03F
COLEMAN        CLOUDY    49  47  91 SW13G18   30.01F
$$

TXZ143>147-156>162-174-175-211800-
CENTRAL TEXAS

CITY           SKY/WX    TMP DP  RH WIND       PRES   REMARKS
WACO           CLOUDY    50  45  83 SE12      30.10F
WACO-TSTC      CLOUDY    50  46  87 SE9       30.10F
WACO-MCGREGOR  CLOUDY    50  43  76 S9        30.10F
HILLSBORO      CLOUDY    49  45  83 SE13      30.08F
CORSICANA      CLOUDY    49  46  90 S6        30.12F FOG
MEXIA          CLOUDY    48  46  92 S6        30.11S
HEARNE         CLOUDY    50  47  90 CALM      30.13S
CAMERON        CLOUDY    50  48  91 S3        30.11F
TEMPLE         CLOUDY    52  43  71 S15       30.08F
KILLEEN        CLOUDY    51  46  83 S13       30.07F
KILLEEN-SKYLRK CLOUDY    52  43  71 SE10      30.06F
FORT HOOD      CLOUDY    52  45  76 S9        30.08S
GATESVILLE     PTSUNNY   50  46  87 SE8       30.09F
HAMILTON       CLOUDY    51  46  84 S13G20    30.05F
$$

TXZ095>097-106>112-122>126-135>138-148>153-164>167-211800-
EAST TEXAS

CITY           SKY/WX    TMP DP  RH WIND       PRES   REMARKS
PARIS          CLOUDY    46  39  76 SE15      30.10F
SULPHUR SPRNGS CLOUDY    50  44  79 S12       30.12F
MOUNT PLEASANT CLOUDY    48  43  82 SE7       30.14F
MINEOLA        CLOUDY    46  45  93 SE5       30.13F
TYLER          CLOUDY    48  43  82 S6        30.11F
LONGVIEW       CLOUDY    45  42  89 S5        30.13F
MARSHALL       CLOUDY    51  45  80 S5        30.15F
ATHENS         CLOUDY    46  43  87 SE3       30.11F
PALESTINE      CLOUDY    49  46  88 SE3       30.13F
JACKSONVILLE   CLOUDY    47  45  93 S5        30.14S FOG
HENDERSON      CLOUDY    46  43  91 S3        30.14F
NACOGDOCHES    CLOUDY    46  43  87 CALM      30.14F
LUFKIN         CLOUDY    51  44  77 CALM      30.12F
$$

SUPPLEMENTAL OBSERVATIONS (CENTRAL)

CITY           SKY/WX    TMP DP  RH WIND       PRES   REMARKS
LAKE TEXOMA      N/A     48  43  81 S9          N/A
CADDO GRASSLND   N/A     48  43  81 S12         N/A
PAT MAYSE LAKE   N/A     46  41  81 SE13        N/A
GREENVILLE       N/A     48  43  81 S7          N/A
CEDAR HILL       N/A     48  43  81 SE10        N/A
PALESTINE        N/A     50  45  81 SE2         N/A
LAKE LIMESTONE   N/A     50  46  87 S7          N/A
MCGREGOR         N/A     52  46  82 S10         N/A
TEMPLE           N/A     52  45  76 S12         N/A
$$

SUPPLEMENTAL OBSERVATIONS (WEST)

CITY           SKY/WX    TMP DP  RH WIND       PRES   REMARKS
MILLERS CREEK    N/A     52  48  87 S14         N/A
POSSUM KINGDOM   N/A     48  45  87 S8          N/A
LBJ GRASSLAND    N/A     48  45  87 SE12        N/A
GRANBURY         N/A     50  45  81 SE12        N/A
HAMBY            N/A     54  45  71 S21G26      N/A
IVIE RESERVOIR   N/A     52  45  76 SW14        N/A
COLORADO BEND    N/A     50  45  81 S8          N/A
$$

SUPPLEMENTAL OBSERVATIONS (EAST)

CITY           SKY/WX    TMP DP  RH WIND       PRES   REMARKS
CLARKSVILLE      N/A     48  41  76 SE8         N/A
TEXARKANA        N/A     46  39  76 SE2         N/A
GILMER           N/A     46  41  81 S6          N/A
HENDERSON        N/A     45  39  81 S6          N/A
LUFKIN           N/A     52  45  76 MISG        N/A
N SABINE NF      N/A     50  48  93 MISG        N/A
S SABINE NF      N/A     50  45  81 S3          N/A
$$

SUPPLEMENTAL OBSERVATIONS ARE A COLLECTION OF AUTOMATED INSTRUMENTS
THAT ARE MAINTAINED BY A VARIETY OF FEDERAL AND STATE AGENCIES.
CERTAIN ELEMENTS...SUCH AS HUMIDITY VALUES AND SUSTAINED WIND
SPEEDS...MAY BE APPROXIMATED.



USA.gov is the U.S. government's official web portal to all federal, state and local government web resources and services.